Location: Quaker Farms
(41.4276°N, 73.1557°W)
Time: 01:09:40
(UTC+00:00)

Altair - Pass Details

Date: 17 June 2021
Orbit: 1501 x 1682 km, 47.2° (Epoch: 23 July)

Event Time Altitude Azimuth Distance (km) Brightness Sun altitude
Rises 03:10:15 0° 291° (WNW) 4,899 10.8 -20.9°
Reaches altitude 10° 03:14:37 10° 275° (W) 3,927 10.0 -21.3°
Maximum altitude 03:20:58 19° 235° (SW) 3,270 9.1 -21.7°
Enters shadow 03:25:21 14° 206° (SSW) 3,601 9.0 -22.0°
Drops below altitude 10° 03:27:21 10° 195° (SSW) 3,933 - -22.2°
Sets 03:31:46 0° 179° (S) 4,908 - -22.5°
